Regional Weather Roundup
Issued by NWS

Home | Current Version | Previous Version | Graphics & Text | Print | Product List | Glossary Off
Versions: 1 2 3 4 5 6 7 8 9 10 11 12 13 14 15 16 17 18 19 20 21 22 23 24 25 26 27 28 29 30 31 32 33 34 35 36 37 38 39 40 41 42 43 44 45 46 47 48 49 50

000
ASUS43 KMKX 271800
RWRWI

WISCONSIN REGIONAL WEATHER ROUNDUP
NATIONAL WEATHER SERVICE MILWAUKEE/SULLIVAN WI
1200 PM CST THU NOV 27 2014

NOTE: "FAIR" INDICATES FEW OR NO CLOUDS BELOW 12,000 FEET WITH NO
SIGNIFICANT WEATHER AND/OR OBSTRUCTIONS TO VISIBILITY.

WIZ001-002-006>008-014>016-023>028-271900-
NORTHWEST WISCONSIN

CITY           SKY/WX    TMP DP  RH WIND       PRES   REMARKS
SUPERIOR ARPT  SUNNY      6  -6  59 W5        30.48F WCI  -3
ASHLAND        PTSUNNY    9  -1  64 SW6       30.44F WCI  -1
6HR MIN TEMP:  -2; 6HR MAX TEMP:  10; 6HR PCP: TRACE;

HAYWARD        SUNNY      4  -3  73 CALM      30.41F
6HR MIN TEMP:  -6; 6HR MAX TEMP:   5;

SIREN          SUNNY      6  -6  57 CALM      30.46F
CUMBERLAND     SUNNY      5  -6  61 CALM      30.42F
RICE LAKE      SUNNY      5  -5  63 NW3       30.45F
CHETEK         SUNNY      5  -5  63 W5        30.44F WCI  -4
LADYSMITH      SUNNY      7  -1  69 NW3       30.42S
EAU CLAIRE     NOT AVBL
MENOMONIE      SUNNY      7  -4  59 W6        30.47F WCI  -3
NEW RICHMOND   SUNNY      6  -5  61 CALM      30.47F
OSCEOLA        SUNNY      6  -5  62 NW3       30.51F
$$

WIZ003>005-009-010-017-018-271900-
NORTH CENTRAL WISCONSIN

CITY           SKY/WX    TMP DP  RH WIND       PRES   REMARKS
MANITOWISH WTR PTSUNNY    8   1  73 NW8       30.31F WCI  -5
ARBOR VITAE    CLOUDY    11   4  73 N7        30.31F WCI   1
WOODRUFF       CLOUDY    11   4  73 N7        30.31F WCI   1
RHINELANDER    CLOUDY    10   1  67 N7        30.30F WCI  -1
6HR MIN TEMP:  -1; 6HR MAX TEMP:  10;

EAGLE RIVER    LGT SNOW  10  -1  59 NW15G21   30.29F WCI  -6
LAND O LAKES   CLOUDY    10   2  72 N7        30.29F HAZE    WCI  -2
PHILLIPS       SUNNY      8  -1  69 NW7       30.34F WCI  -4
TOMAHAWK       PTSUNNY    9   2  72 CALM      30.33F
MEDFORD        SUNNY      8   0  68 NW7       30.34F WCI  -3
MERRILL        SUNNY     12   1  63 NW6       30.34S WCI   2
$$

WIZ029-030-035-036-043>047-271900-
CENTRAL WISCONSIN

CITY           SKY/WX    TMP DP  RH WIND       PRES   REMARKS
WAUSAU         SUNNY     11   2  67 NW9       30.33F WCI  -2
6HR MIN TEMP:   8; 6HR MAX TEMP:  12; 6HR PCP: TRACE;

MOSINEE        NOT AVBL
MARSHFIELD     SUNNY     10   1  67 NW9       30.36F WCI  -3
6HR MIN TEMP:   6; 6HR MAX TEMP:  12; 6HR PCP: TRACE;

STEVENS POINT  PTSUNNY   12   5  72 NW7       30.36F WCI   2
WAUPACA        MOSUNNY   20   9  62 NW8       30.37F WCI  10
WAUTOMA        MOSUNNY   16   7  67 NW12      30.38F WCI   3
WISC RAPIDS    SUNNY     12   2  64 NW10      30.39F WCI  -1
6HR MIN TEMP:  10; 6HR MAX TEMP:  15; 6HR PCP: TRACE;

CAMP DOUGLAS   NOT AVBL
$$

WIZ011>013-019>022-031-037>040-048>050-271900-
NORTHEAST WISCONSIN

CITY           SKY/WX    TMP DP  RH WIND       PRES   REMARKS
ANTIGO         SUNNY     10   1  66 N9        30.30F WCI  -2
SHAWANO        MOSUNNY   18   6  59 N7        30.35F WCI   9
OCONTO         SUNNY     16   2  55 NW8G16    30.35S WCI   5
STURGEON BAY   PTSUNNY   18   3  53 NW13      30.32S WCI   4
6HR MIN TEMP:  16; 6HR MAX TEMP:  21;

GREEN BAY      SUNNY     17   6  62 NW10      30.35S WCI   5
6HR MIN TEMP:  16; 6HR MAX TEMP:  20; 6HR PCP: TRACE;

MANITOWOC      NOT AVBL
APPLETON       PTSUNNY   16   7  67 NW10      30.35S WCI   3
CLINTONVILLE   SUNNY     18   5  57 NW13      30.35F WCI   4
OSHKOSH        SUNNY     17   6  62 MISG      30.35S
6HR MIN TEMP:  16; 6HR MAX TEMP:  20; 6HR PCP: TRACE;

$$

WIZ032>034-041-042-053>061-271900-
SOUTHWEST WISCONSIN

CITY           SKY/WX    TMP DP  RH WIND       PRES   REMARKS
LA CROSSE      SUNNY     12   0  58 N9        30.48F WCI   0
6HR MIN TEMP:   8; 6HR MAX TEMP:  14;

SPARTA         SUNNY     11   1  65 NW7       30.44F WCI   0
VIROQUA        SUNNY     11   1  62 NW9       30.39F WCI  -2
BOSCOBEL       SUNNY     18   3  52 NW12      30.43F WCI   5
6HR MIN TEMP:  17; 6HR MAX TEMP:  21; 6HR PCP: TRACE;

PRAIRIE DU CHI SUNNY     15   1  54 NW8       30.45F WCI   4
PLATTEVILLE    MOSUNNY   18  11  74 W8        30.39F WCI   7
$$

WIZ056-057-062-063-064-067-068-271900-
SOUTH CENTRAL WISCONSIN

CITY           SKY/WX    TMP DP  RH WIND       PRES   REMARKS
REEDSBURG      SUNNY     15   7  71 W8        30.39S WCI   3
BARABOO/DELLS  SUNNY     15   7  69 NW6       30.38S WCI   7
LONE ROCK      NOT AVBL
MINERAL POINT  SUNNY     21  10  63 NW12      30.36F WCI   9
MADISON        PTSUNNY   20  11  68 NW9       30.37F WCI   9
6HR MIN TEMP:  18; 6HR MAX TEMP:  22; 6HR PCP: TRACE;

MIDDLETON      CLOUDY    20  11  69 N8        30.37S WCI  10
WATERTOWN      CLOUDY    19  12  76 N10       30.35S WCI   7
MONROE         CLOUDY    21  16  79 N9        30.34F WCI  11
JANESVILLE     PTSUNNY   23  14  68 NW15      30.35F WCI  10
$$

WIZ051-052-058>065-066-070>072-271900-
SOUTHEAST WISCONSIN

CITY           SKY/WX    TMP DP  RH WIND       PRES   REMARKS
MILWAUKEE      CLOUDY    23  14  68 NW8       30.33S WCI  14
6HR MIN TEMP:  22; 6HR MAX TEMP:  24; 6HR PCP: TRACE;

WAUKESHA       CLOUDY    18  12  79 NW12      30.34S WCI   5
MILWAUKEE/TIMM NOT AVBL
RACINE         PTSUNNY   22  14  71 NW13      30.34S WCI  10
6HR MIN TEMP:  22; 6HR MAX TEMP:  24;

BURLINGTON     CLOUDY    19  14  79 NW14      30.34S WCI   6
KENOSHA        PTSUNNY   22  15  75 NW12      30.33R WCI  10
6HR MIN TEMP:  22; 6HR MAX TEMP:  24;

FOND DU LAC    MOSUNNY   17   7  64 NW15      30.35S WCI   2
6HR MIN TEMP:  17; 6HR MAX TEMP:  21; 6HR PCP: TRACE;

SHEBOYGAN      MOSUNNY   18   8  65 NW10      30.33F WCI   6
6HR MIN TEMP:  17; 6HR MAX TEMP:  22; 6HR PCP: TRACE;

WEST BEND      PTSUNNY   21  12  68 NW9       30.33R WCI  11
JUNEAU         CLOUDY    18  11  76 NW8G16    30.35S WCI   7
$$

LSZ147-162-271900-
LAKE SUPERIOR

STATION/POSITION TIME  TEMP    WIND        PRES    WAVE
                       AIR SEA DIR/SP/G            HT/PER
                 (UTC) (F)     (DEG/KT/KT) (MB)    (FT/S)
DEVILS ISLAND    1700    9     360/  8/ 10 1032.6F
PORT WING        1740    7     200/  7/  9 1031.2F
SAXON HARBOR     1740   12     310/  8/ 11 1030.1F
$$

LMZ867-665-643>646-271900-
LAKE MICHIGAN

STATION/POSITION TIME  TEMP    WIND        PRES    WAVE
                       AIR SEA DIR/SP/G            HT/PER
                 (UTC) (F)     (DEG/KT/KT) (MB)    (FT/S)
CHAMBERS ISLAND  1700   18     310/ 18/ 22 1026.8F
N MID LAKE BUOY  1650   20 42  330/ 19/ 25 1026.2F   5/ 5
NORTHPORT PIER   1708   19     320/ 18     1026.4S
SISTER BAY       1713          340/ 25/ 31   N/A
ALGOMA LAKESHORE 1658          310/ 14/ 16   N/A
KEWAUNEE LAKESHO 1700   16     340/ 11/ 16 1026.3S
SHEBOYGAN LAKESH 1700   19 34  340/ 15/ 17 1028.9R
PORT WASHINGTON  1700   23     340/  6/ 12 1028.1R
MILWAUKEE LAKESH 1700   22     300/ 12/ 16   N/A
S MID LAKE BUOY  1650   30 42  300/ 19/ 25 1025.9R   5/ 6
KENOSHA   LAKESH 1700   23     320/ 14/ 20 1026.8S
$$

TC  - TEMPERATURE IN CELSIUS
VSB - VISIBILITY IN STATUTE MILES
WCI - WIND CHILL INDEX
HX  - HEAT INDEX




USA.gov is the U.S. government's official web portal to all federal, state and local government web resources and services.